Regional Weather Roundup
Issued by NWS

Home | Current Version | Previous Version | Text Only | Print | Product List | Glossary Off
Versions: 1 2 3 4 5 6 7 8 9 10 11 12 13 14 15 16 17 18 19 20 21 22 23 24 25 26 27 28 29 30 31 32 33 34 35 36 37 38 39 40 41 42 43 44 45 46 47 48 49 50

000
ASUS43 KDTX 240501
RWRMI
MICHIGAN HOURLY REGIONAL WEATHER ROUNDUP
NATIONAL WEATHER SERVICE DETROIT/PONTIAC MI
100 AM EDT MON JUL 24 2017

NOTE: "FAIR" INDICATES FEW OR NO CLOUDS BELOW 12,000 FEET WITH NO
SIGNIFICANT WEATHER AND/OR OBSTRUCTION TO VISIBILITY.

MIZ047>049-052>055-059>063-066>070-074>076-081>083-240600-
SOUTHEAST LOWER MICHIGAN

CITY           SKY/WX    TMP DP  RH WIND       PRES   REMARKS
ADRIAN         CLOUDY    70  65  84 NW6       29.82R
ALMA           CLEAR     65  61  84 NW8       29.84R
ANN ARBOR      CLEAR     65  64  97 W3        29.80R
BAD AXE        CLOUDY    64  62  91 NW9       29.81R
CARO           PTCLDY    65  62  90 NW5       29.80R
DETROIT CITY   MOCLDY    72  62  71 CALM      29.79R
DETROIT        CLOUDY    69  66  90 W5        29.80R
FLINT          PTCLDY    65  62  90 NW6       29.81R
GROSSE ILE     CLOUDY    70  65  83 CALM      29.78R
HILLSDALE      CLOUDY    68  63  83 CALM      29.84R
HOWELL         CLEAR     65  64  96 W3        29.82R

CITY           SKY/WX    TMP DP  RH WIND       PRES   REMARKS
JACKSON        CLEAR     68  62  81 NW6       29.83R
LAMBERTVILLE   PTCLDY    70  68  95 CALM      29.80R
LANSING        PTCLDY    68  62  81 NW5       29.83R
LAPEER         CLOUDY    64  64  97 CALM      29.81R
MASON          MOCLDY    67  63  84 NW3       29.83R
MONROE         PTCLDY    70  69  96 W5        29.79R
MT. CLEMENS    MOCLDY    67  65  91 NW3       29.77R
PONTIAC        PTCLDY    68  63  84 W6        29.79R
PORT HOPE        N/A     66  63  90 NW9       29.77R
PORT HURON     PTCLDY    64  64 100 CALM      29.79R
TRI CITIES     MOCLDY    67  62  84 N8        29.83R
MIDLAND        FAIR      65  59  82 N6        29.83R
TROY           PTCLDY    71  60  68 CALM      29.81R
SAGINAW HB     MOCLDY    64  61  88 N6        29.81R
$$
MIZ043>046-050>051-056>058-064>065-071>073-077>080-240600-
SOUTHWEST LOWER MICHIGAN

CITY           SKY/WX    TMP DP  RH WIND       PRES   REMARKS
BATTLE CREEK   CLEAR     69  64  84 N5        29.85R
BENTON HARBOR  CLOUDY    71  66  84 VRB5      29.86R
BIG RAPIDS     PTCLDY    63  59  88 NW5       29.86R
COLDWATER      CLEAR     69  67  94 CALM      29.85R
FREMONT        FAIR      62  62  99 CALM      29.86R
HOLLAND        CLEAR     68  61  78 N5        29.87R
IONIA          FAIR      67  60  77 NW5       29.84R
KALAMAZOO      CLEAR     69  63  81 N8        29.85R
LUDINGTON      CLOUDY    64  62  92 N3        29.87S
MARSHALL       PTCLDY    68  67  95 CALM      29.84R
MUSKEGON       PTCLDY    66  61  84 N5        29.87R
SOUTH HAVEN    PTCLDY    70  68  93 N8        29.86R
$$
MIZ016>042-240600-
NORTHERN LOWER MICHIGAN

CITY           SKY/WX    TMP DP  RH WIND       PRES   REMARKS
ALPENA         LGT RAIN  59  59 100 N13       29.87R FOG
BEAVER ISLAND  CLOUDY    58  55  90 NE5       29.95S
BELLAIRE       CLOUDY    61  54  77 NE12G21   29.91R
CADILLAC       CLOUDY    63  57  79 N9        29.88R
CHARLEVOIX     MOCLDY    60  54  80 NE12      29.95R
FRANKFORT      MOCLDY    65  61  87 N6        29.90R
GAYLORD        CLOUDY    58  54  86 NE13G20   29.91R
GRAYLING       CLOUDY    58  55  91 N10       29.90R
HARBOR SPRINGS MOCLDY    58  54  85 N8        29.92R
HOUGHTON LAKE  CLOUDY    60  57  89 N13       29.89R
MANISTEE       CLEAR     64  60  87 NE7       29.88R
OSCODA         CLOUDY    62  59  91 NW13G18   29.82R
PELLSTON       CLOUDY    59  55  87 N7        29.93R
ROGERS CITY    DRIZZLE   59  57  93 NE8G18    29.90S
TRAVERSE CITY  CLOUDY    63  57  81 NE14      29.88R
$$
MIZ007>008-015-240600-
EASTERN UPPER MICHIGAN

CITY           SKY/WX    TMP DP  RH WIND       PRES   REMARKS
KINROSS        CLEAR     54  52  93 N8        29.96R
MACKINAC ISLAN MOCLDY    57  57 100 N12       29.93S
NEWBERRY       CLEAR     52  51  97 N5        29.97S
S. S. MARIE    CLEAR     58  51  78 N5        29.95S
MUNISING         N/A     52  51  97 S5        29.99S
$$
MIZ004>006-011>014-085-240600-
CENTRAL UPPER MICHIGAN

CITY           SKY/WX    TMP DP  RH WIND       PRES   REMARKS
MANISTIQUE     CLEAR     53  50  89 N6        29.97S
ESCANABA       CLOUDY    59  55  87 N5        29.98R
MENOMINEE      CLOUDY    61  55  81 N12       29.97R
SAWYER-GWINN   CLEAR     49  49  97 N3        30.02S
$$
MIZ001>003-009>011-084-240600-
WESTERN UPPER MICHIGAN

CITY           SKY/WX    TMP DP  RH WIND       PRES   REMARKS
IRON MOUNTAIN  CLEAR     55  50  83 NW7       30.00R
HOUGHTON       CLEAR     48  45  89 CALM      30.03R
COPPER HARBOR    N/A     53  49  86 CALM      30.03R
IRONWOOD       FOG       55  55 100 CALM      30.06R VSB 1/4
$$

ABBREVIATIONS USED IN REMARKS
   TC - TEMPERATURE IN CELSIUS
  WCI - WIND CHILL INDEX
   HX - HEAT INDEX
  VSB - VISIBILITY





USA.gov is the U.S. government's official web portal to all federal, state and local government web resources and services.